Weather History for Middleton, WI

Change the Weather History Date:

Friday, January 17, 2014

  Actual Average (KMSN) Record (KMSN)
Temperature  
Mean Temperature 14 °F 18 °F  
Max Temperature 19 °F 26 °F 54 °F (1894)
Min Temperature 9 °F 11 °F -26 °F (1982)
Degree Days  
Heating Degree Days 50 47  
Month to date heating degree days 788  
Since 1 July heating degree days 3667  
Cooling Degree Days 0 0  
Month to date cooling degree days 0  
Year to date cooling degree days 0  
Moisture  
Dew Point 6 °F    
Average Humidity 69    
Maximum Humidity 77    
Minimum Humidity 60    
Precipitation  
Precipitation 0.00 in 0.04 in 0.50 in (1877)
Month to date precipitation 0.69  
Year to date precipitation 0.69  
Snow  
Snow 0.00 in 0.40 in 5.00 in (1953)
Month to date snowfall 7.1  
Since 1 July snowfall 24.7  
Snow Depth -    
Sea Level Pressure  
Sea Level Pressure 29.83 in    
Wind  
Wind Speed 10 mph (WNW)    
Max Wind Speed 14 mph    
Max Gust Speed 17 mph    
Visibility 9 miles    
Events      
T = Trace of Precipitation, MM = Missing Value Source: NWS Daily Summary

Daily Weather History Graph

Daily Weather History Graph

Search for Another Location

Airport:

Trip Planner

Search our weather history database for the weather conditions in past years. The results will help you decide how hot, cold, wet, or windy it might be!

Date:

Astronomy

Jan. 17, 2014 Rise Set
Actual Time 7:25 AM CST 4:51 PM CST
Civil Twilight 6:54 AM CST 5:22 PM CST
Nautical Twilight 6:19 AM CST 5:57 PM CST
Astronomical Twilight 5:45 AM CST 6:31 PM CST
Moon 6:41 PM CST (1/17) 7:50 AM CST (1/17)
Length of Visible Light 10h 27m
Length of Day
9h 25m
Full, 98% of the Moon is Illuminated
Jan 17
Full
Jan 23
Last Quarter
Jan 30
New
Feb 6
First Quarter
Feb 14
Full

Hourly Weather History & Observations

Time (CST) Temp. Windchill Dew Point Humidity Pressure Visibility Wind Dir Wind Speed Gust Speed Precip Events Conditions
12:15 AM 12.2 °F -0.2 °F 1.0 °F 61% 29.70 in 10.0 mi NW 9.2 mph - N/A   Overcast
12:35 AM 12.2 °F 1.7 °F 0.7 °F 60% 29.70 in 10.0 mi NW 6.9 mph - N/A   Overcast
12:55 AM 12.0 °F -3.4 °F 0.5 °F 60% 29.71 in 10.0 mi WNW 13.8 mph 17.3 mph N/A   Overcast
1:15 AM 12.2 °F -1.8 °F 0.9 °F 60% 29.72 in 10.0 mi WNW 11.5 mph - N/A   Overcast
1:35 AM 12.2 °F -2.5 °F 1.0 °F 61% 29.73 in 10.0 mi WNW 12.7 mph 17.3 mph N/A   Overcast
1:55 AM 11.8 °F -3.0 °F 1.0 °F 62% 29.73 in 10.0 mi WNW 12.7 mph - N/A   Overcast
2:15 AM 11.8 °F -3.0 °F 1.0 °F 62% 29.73 in 10.0 mi WNW 12.7 mph 17.3 mph N/A   Overcast
2:35 AM 11.7 °F -2.5 °F 1.2 °F 63% 29.73 in 10.0 mi WNW 11.5 mph - N/A   Overcast
2:55 AM 10.9 °F -3.4 °F 0.5 °F 63% 29.74 in 10.0 mi WNW 11.5 mph - N/A   Overcast
3:15 AM 10.9 °F -2.6 °F 0.9 °F 64% 29.74 in 10.0 mi WNW 10.4 mph - N/A   Overcast
3:35 AM 10.9 °F -1.8 °F 1.0 °F 64% 29.74 in 10.0 mi WNW 9.2 mph - N/A   Overcast
3:55 AM 10.4 °F -3.3 °F 1.0 °F 66% 29.75 in 10.0 mi West 10.4 mph - N/A   Overcast
4:15 AM 10.9 °F -2.6 °F 1.4 °F 65% 29.75 in 10.0 mi WNW 10.4 mph - N/A   Overcast
4:35 AM 11.3 °F -2.2 °F 2.1 °F 67% 29.75 in 10.0 mi WNW 10.4 mph - N/A   Overcast
4:55 AM 11.5 °F -1.1 °F 2.3 °F 67% 29.76 in 10.0 mi WNW 9.2 mph - N/A   Overcast
5:15 AM 11.5 °F -2.7 °F 2.3 °F 67% 29.76 in 10.0 mi West 11.5 mph - N/A   Overcast
5:35 AM 11.5 °F -1.1 °F 3.0 °F 69% 29.76 in 10.0 mi WNW 9.2 mph - N/A   Overcast
5:55 AM 11.3 °F -2.2 °F 3.2 °F 70% 29.77 in 10.0 mi West 10.4 mph - N/A   Overcast
6:15 AM 11.5 °F -0.2 °F 3.2 °F 69% 29.77 in 10.0 mi WNW 8.1 mph - N/A   Overcast
6:35 AM 11.7 °F -0.9 °F 3.9 °F 71% 29.77 in 10.0 mi West 9.2 mph - N/A   Overcast
6:55 AM 11.8 °F -1.5 °F 4.1 °F 71% 29.77 in 10.0 mi West 10.4 mph - N/A   Overcast
7:15 AM 11.8 °F -0.7 °F 4.5 °F 72% 29.77 in 7.0 mi West 9.2 mph - N/A   Overcast
7:35 AM 11.7 °F -1.7 °F 4.8 °F 74% 29.78 in 2.5 mi West 10.4 mph - N/A   Overcast
7:55 AM 11.7 °F -1.7 °F 5.2 °F 75% 29.79 in 3.0 mi West 10.4 mph - N/A   Overcast
8:10 AM 11.8 °F 0.3 °F 5.9 °F 77% 29.80 in 3.0 mi West 8.1 mph - N/A   Overcast
8:35 AM 12.0 °F 0.5 °F 5.9 °F 76% 29.80 in 4.0 mi West 8.1 mph - N/A   Overcast
8:55 AM 12.4 °F 0.0 °F 6.4 °F 77% 29.81 in 2.5 mi West 9.2 mph - N/A   Overcast
9:15 AM 12.9 °F 1.6 °F 6.8 °F 77% 29.81 in 3.0 mi West 8.1 mph - N/A   Overcast
9:35 AM 13.5 °F 1.3 °F 7.2 °F 76% 29.81 in 2.5 mi West 9.2 mph - N/A   Overcast
9:55 AM 14.0 °F 1.2 °F 7.7 °F 76% 29.82 in 2.5 mi WNW 10.4 mph - N/A   Overcast
10:15 AM 14.5 °F 1.9 °F 8.4 °F 77% 29.82 in 3.0 mi WNW 10.4 mph - N/A   Overcast
10:35 AM 14.9 °F 3.1 °F 8.6 °F 76% 29.82 in 4.0 mi WNW 9.2 mph - N/A   Overcast
10:55 AM 15.6 °F 4.0 °F 9.3 °F 76% 29.83 in 4.0 mi WNW 9.2 mph - N/A   Overcast
11:15 AM 16.5 °F 5.1 °F 10.0 °F 76% 29.82 in 5.0 mi WNW 9.2 mph - N/A   Overcast
11:35 AM 17.4 °F 4.7 °F 10.4 °F 74% 29.82 in 3.0 mi WNW 11.5 mph - N/A   Overcast
11:55 AM 18.0 °F 7.7 °F 10.0 °F 71% 29.83 in 7.0 mi WNW 8.1 mph - N/A   Overcast
12:15 PM 18.7 °F 7.0 °F 10.4 °F 70% 29.83 in 10.0 mi NW 10.4 mph - N/A   Overcast
12:35 PM 19.6 °F 7.4 °F 10.9 °F 69% 29.83 in 10.0 mi WNW 11.5 mph - N/A   Overcast
12:55 PM 19.6 °F 6.8 °F 10.2 °F 67% 29.82 in 10.0 mi NW 12.7 mph - N/A   Overcast
1:15 PM 19.4 °F 7.2 °F 10.4 °F 68% 29.83 in 10.0 mi WNW 11.5 mph 16.1 mph N/A   Overcast
1:35 PM 19.4 °F 8.6 °F 9.9 °F 66% 29.83 in 10.0 mi WNW 9.2 mph - N/A   Overcast
1:55 PM 19.2 °F 7.0 °F 9.1 °F 65% 29.84 in 10.0 mi WNW 11.5 mph - N/A   Overcast
2:15 PM 19.4 °F 8.6 °F 9.1 °F 64% 29.85 in 10.0 mi NW 9.2 mph 12.7 mph N/A   Overcast
2:35 PM 19.4 °F 7.9 °F 9.5 °F 65% 29.85 in 10.0 mi WNW 10.4 mph - N/A   Overcast
2:55 PM 19.4 °F 7.2 °F 9.7 °F 66% 29.86 in 10.0 mi WNW 11.5 mph - N/A   Overcast
3:15 PM 19.4 °F 7.9 °F 9.3 °F 65% 29.87 in 10.0 mi WNW 10.4 mph 17.3 mph N/A   Overcast
3:35 PM 19.6 °F 8.9 °F 9.5 °F 65% 29.87 in 10.0 mi WNW 9.2 mph - N/A   Overcast
3:55 PM 19.6 °F 8.9 °F 9.7 °F 65% 29.88 in 10.0 mi WNW 9.2 mph - N/A   Overcast
4:15 PM 19.4 °F 7.9 °F 9.5 °F 65% 29.89 in 10.0 mi WNW 10.4 mph - N/A   Overcast
4:35 PM 19.4 °F 8.6 °F 9.9 °F 66% 29.89 in 10.0 mi WNW 9.2 mph - N/A   Overcast
4:50 PM 19.0 °F 7.5 °F 9.9 °F 67% 29.90 in 10.0 mi WNW 10.4 mph - N/A   Overcast
5:15 PM 19.2 °F 7.7 °F 9.7 °F 66% 29.90 in 10.0 mi WNW 10.4 mph - N/A   Overcast
5:35 PM 19.2 °F 7.7 °F 10.0 °F 67% 29.91 in 10.0 mi WNW 10.4 mph - N/A   Overcast
5:55 PM 19.0 °F 10.0 °F 10.4 °F 69% 29.91 in 10.0 mi West 6.9 mph - N/A   Overcast
6:15 PM 18.9 °F 7.2 °F 10.6 °F 70% 29.92 in 10.0 mi WNW 10.4 mph - N/A   Overcast
6:35 PM 18.9 °F 8.0 °F 10.0 °F 69% 29.92 in 10.0 mi WNW 9.2 mph - N/A   Overcast
6:55 PM 18.3 °F 8.2 °F 9.5 °F 68% 29.93 in 10.0 mi WNW 8.1 mph - N/A   Overcast
7:15 PM 16.9 °F 6.4 °F 8.6 °F 70% 29.93 in 10.0 mi WNW 8.1 mph - N/A   Mostly Cloudy
7:35 PM 16.5 °F 6.0 °F 8.2 °F 70% 29.93 in 10.0 mi WNW 8.1 mph - N/A   Overcast
7:55 PM 15.4 °F 5.6 °F 7.5 °F 71% 29.93 in 10.0 mi WNW 6.9 mph - N/A   Mostly Cloudy
8:15 PM 13.5 °F 4.4 °F 6.6 °F 74% 29.94 in 10.0 mi West 5.8 mph - N/A   Clear
8:35 PM 13.8 °F 2.7 °F 6.1 °F 71% 29.94 in 10.0 mi West 8.1 mph - N/A   Scattered Clouds
8:55 PM 14.0 °F 2.0 °F 5.5 °F 69% 29.93 in 10.0 mi WNW 9.2 mph - N/A   Scattered Clouds
9:15 PM 12.7 °F 3.6 °F 4.3 °F 69% 29.93 in 10.0 mi West 5.8 mph - N/A   Clear
9:35 PM 12.4 °F 2.0 °F 4.1 °F 69% 29.93 in 10.0 mi West 6.9 mph - N/A   Scattered Clouds
9:55 PM 12.7 °F 0.4 °F 4.5 °F 70% 29.93 in 10.0 mi West 9.2 mph - N/A   Overcast
10:15 PM 12.6 °F 1.1 °F 4.6 °F 71% 29.93 in 10.0 mi West 8.1 mph - N/A   Overcast
10:35 PM 12.7 °F 0.4 °F 4.5 °F 70% 29.93 in 10.0 mi West 9.2 mph - N/A   Overcast
10:55 PM 12.4 °F 2.0 °F 3.9 °F 69% 29.92 in 10.0 mi WNW 6.9 mph - N/A   Overcast
11:15 PM 10.9 °F 0.2 °F 2.8 °F 70% 29.90 in 10.0 mi WNW 6.9 mph - N/A   Mostly Cloudy
11:35 PM 10.2 °F - 2.3 °F 70% 29.89 in 10.0 mi Calm Calm - N/A   Scattered Clouds
11:55 PM 9.5 °F - 2.1 °F 72% 29.88 in 10.0 mi Calm Calm - N/A   Clear